Meriden, CT

6:46 PM EST on November 21, 2017 (GMT -0500)
Meriden Markham Municipal

Weather History for KMMK - September, 2013

Change the Weather History Date:

Friday, September 27, 2013

  Actual Average (KOXC) Record (KOXC)
Temperature  
Mean Temperature 56 °F -  
Max Temperature 64 °F 63 °F 86 °F (2017)
Min Temperature 48 °F 46 °F 35 °F (2000)
Degree Days  
Heating Degree Days 9    
Growing Degree Days 6 (Base 50)    
Moisture  
Dew Point 48 °F    
Average Humidity 79    
Maximum Humidity 93    
Minimum Humidity 54    
Precipitation  
Precipitation 0.00 in - - ()
Sea Level Pressure  
Sea Level Pressure 30.22 in    
Wind  
Wind Speed 3 mph (North)    
Max Wind Speed 12 mph    
Max Gust Speed 16 mph    
Visibility 10 miles    
Events      
Averages and records for this station are not official NWS values.
T = Trace of Precipitation, MM = Missing Value Source: NWS Daily Summary

Daily Weather History Graph

Daily Weather History Graph

Search for Another Location

Airport or City:

Trip Planner

Search our weather history database for the weather conditions in past years. The results will help you decide how hot, cold, wet, or windy it might be!

Date:

Astronomy

Sep. 27, 2013 Rise Set
Actual Time 6:44 AM EDT 6:39 PM EDT
Civil Twilight 6:16 AM EDT 7:07 PM EDT
Nautical Twilight 5:44 AM EDT 7:39 PM EDT
Astronomical Twilight 5:11 AM EDT 8:11 PM EDT
Moon No Moon Rise 2:19 PM EDT (9/27)
Length of Visible Light 12h 50m
Length of Day
11h 55m
Last Quarter, 45% of the Moon is Illuminated
Sep 27
Last Quarter
Oct 4
New
Oct 11
First Quarter
Oct 18
Full
Oct 26
Last Quarter

Hourly Weather History & Observations

Time (EDT) Temp. Dew Point Humidity Pressure Visibility Wind Dir Wind Speed Gust Speed Precip Events Conditions
12:53 AM 50.0 °F 46.9 °F 89% 30.13 in 10.0 mi NW 3.5 mph - N/A   Partly Cloudy
1:53 AM 48.9 °F 46.0 °F 90% 30.14 in 10.0 mi Calm Calm - N/A   Mostly Cloudy
2:53 AM 48.9 °F 46.0 °F 90% 30.14 in 10.0 mi Calm Calm - N/A   Overcast
3:53 AM 48.9 °F 46.9 °F 93% 30.15 in 10.0 mi Calm Calm - N/A   Overcast
4:53 AM 50.0 °F 48.0 °F 93% 30.16 in 10.0 mi Calm Calm - N/A   Mostly Cloudy
5:53 AM 48.9 °F 46.9 °F 93% 30.18 in 10.0 mi Calm Calm - N/A   Clear
6:53 AM 48.0 °F 46.0 °F 93% 30.20 in 10.0 mi Calm Calm - N/A   Clear
7:53 AM 48.9 °F 46.0 °F 90% 30.22 in 10.0 mi Calm Calm - N/A   Partly Cloudy
8:53 AM 53.1 °F 48.9 °F 86% 30.23 in 10.0 mi Calm Calm - N/A   Overcast
9:53 AM 57.0 °F 50.0 °F 77% 30.25 in 10.0 mi NNE 5.8 mph - N/A   Overcast
10:53 AM 61.0 °F 50.0 °F 67% 30.25 in 10.0 mi NNE 5.8 mph - N/A   Overcast
11:53 AM 64.0 °F 48.9 °F 58% 30.24 in 10.0 mi North 11.5 mph - N/A   Overcast
12:53 PM 64.0 °F 48.9 °F 58% 30.24 in 10.0 mi NE 10.4 mph 16.1 mph N/A   Overcast
1:53 PM 64.9 °F 48.0 °F 54% 30.22 in 10.0 mi North 9.2 mph - N/A   Overcast
2:53 PM 64.0 °F 48.0 °F 56% 30.22 in 10.0 mi North 6.9 mph - N/A   Overcast
3:53 PM 64.0 °F 48.0 °F 56% 30.21 in 10.0 mi NNW 6.9 mph - N/A   Overcast
4:53 PM 63.0 °F 48.9 °F 60% 30.22 in 10.0 mi North 5.8 mph - N/A   Overcast
5:53 PM 62.1 °F 48.9 °F 62% 30.22 in 10.0 mi North 3.5 mph - N/A   Mostly Cloudy
6:53 PM 57.0 °F 52.0 °F 83% 30.23 in 10.0 mi Calm Calm - N/A   Clear
7:53 PM 54.0 °F 51.1 °F 90% 30.24 in 10.0 mi Calm Calm - N/A   Scattered Clouds
8:53 PM 51.1 °F 48.9 °F 92% 30.26 in 10.0 mi Calm Calm - N/A   Clear
9:53 PM 50.0 °F 48.0 °F 93% 30.27 in 7.0 mi Calm Calm - N/A   Clear
10:53 PM 48.9 °F 46.9 °F 93% 30.28 in 10.0 mi Calm Calm - N/A   Clear
11:53 PM 48.0 °F 45.0 °F 89% 30.29 in 10.0 mi Calm Calm - N/A   Clear